Weather History for Smithfield, NC

Change the Weather History Date:

Sunday, February 17, 2013

  Actual Average Record
Temperature  
Mean Temperature 30 °F -  
Max Temperature 37 °F 58 °F 80 °F (1976)
Min Temperature 21 °F 34 °F 9 °F (1958)
Degree Days  
Heating Degree Days 35    
Moisture  
Dew Point 18 °F    
Average Humidity 64    
Maximum Humidity 100    
Minimum Humidity 30    
Precipitation  
Precipitation 0.01 in - - ()
Sea Level Pressure  
Sea Level Pressure 30.10 in    
Wind  
Wind Speed 4 mph (WNW)    
Max Wind Speed 13 mph    
Max Gust Speed 25 mph    
Visibility 10 miles    
Events      
Averages and records for this station are not official NWS values.
T = Trace of Precipitation, MM = Missing Value Source: NWS Daily Summary

Daily Weather History Graph

Daily Weather History Graph

Search for Another Location

Airport:

Trip Planner

Search our weather history database for the weather conditions in past years. The results will help you decide how hot, cold, wet, or windy it might be!

Date:

Astronomy

Feb. 17, 2013 Rise Set
Actual Time 6:57 AM EST 5:57 PM EST
Civil Twilight 6:31 AM EST 6:23 PM EST
Nautical Twilight 6:01 AM EST 6:53 PM EST
Astronomical Twilight 5:32 AM EST 7:23 PM EST
Moon 11:05 AM EST (2/17) 12:35 AM EST (2/17)
Length of Visible Light 11h 52m
Length of Day
11h 00m
Waxing Crescent, 49% of the Moon is Illuminated
Feb 17
Waxing Crescent
Feb 17
First Quarter
Feb 25
Full
Mar 4
Last Quarter
Mar 11
New

Hourly Weather History & Observations

Time (EST) Temp. Windchill Dew Point Humidity Pressure Visibility Wind Dir Wind Speed Gust Speed Precip Events Conditions
12:15 AM 32.0 °F 26.4 °F 32.0 °F 100% 29.92 in 2.5 mi NW 5.8 mph - N/A   Overcast
12:35 AM 32.0 °F 26.4 °F 32.0 °F 100% 29.93 in 2.5 mi NNW 5.8 mph - N/A   Overcast
12:55 AM 32.0 °F 27.5 °F 32.0 °F 100% 29.93 in 1.8 mi NNW 4.6 mph - N/A   Overcast
1:15 AM 32.0 °F 27.5 °F 32.0 °F 100% 29.94 in 4.0 mi NNW 4.6 mph - N/A   Overcast
1:35 AM 32.0 °F 26.4 °F 30.2 °F 93% 29.94 in 7.0 mi North 5.8 mph - N/A   Overcast
1:55 AM 32.0 °F - 28.4 °F 87% 29.95 in 10.0 mi Calm Calm - N/A   Overcast
2:15 AM 32.0 °F - 28.4 °F 87% 29.95 in 10.0 mi Calm Calm - N/A   Overcast
2:35 AM 30.2 °F - 28.4 °F 93% 29.95 in 10.0 mi Calm Calm - N/A   Overcast
2:55 AM 30.2 °F - 26.6 °F 86% 29.95 in 10.0 mi Calm Calm - N/A   Scattered Clouds
3:15 AM 30.2 °F - 26.6 °F 86% 29.95 in 10.0 mi Calm Calm - N/A   Scattered Clouds
3:35 AM 30.2 °F 26.7 °F 23.0 °F 75% 29.96 in 10.0 mi NW 3.5 mph - N/A   Clear
3:55 AM 28.4 °F - 23.0 °F 80% 29.96 in 10.0 mi Calm Calm - N/A   Clear
4:15 AM 28.4 °F - 23.0 °F 80% 29.97 in 10.0 mi Calm Calm - N/A   Clear
4:35 AM 28.4 °F 23.3 °F 23.0 °F 80% 29.98 in 10.0 mi West 4.6 mph - N/A   Clear
4:55 AM 28.4 °F 24.6 °F 23.0 °F 80% 29.99 in 10.0 mi West 3.5 mph - N/A   Clear
5:15 AM 28.4 °F 24.6 °F 23.0 °F 80% 30.00 in 10.0 mi West 3.5 mph - N/A   Clear
5:35 AM 28.4 °F - 23.0 °F 80% 30.00 in 10.0 mi Calm Calm - N/A   Clear
5:55 AM 28.4 °F 24.6 °F 21.2 °F 74% 30.01 in 10.0 mi West 3.5 mph - N/A   Clear
6:15 AM 28.4 °F - 21.2 °F 74% 30.02 in 10.0 mi Calm Calm - N/A   Clear
6:35 AM 26.6 °F - 21.2 °F 80% 30.03 in 10.0 mi Calm Calm - N/A   Clear
6:55 AM 26.6 °F - 21.2 °F 80% 30.04 in 10.0 mi Calm Calm - N/A   Clear
7:15 AM 26.6 °F - 21.2 °F 80% 30.05 in 10.0 mi Calm Calm - N/A   Clear
7:35 AM 28.4 °F - 21.2 °F 74% 30.05 in 10.0 mi Calm Calm - N/A   Clear
7:55 AM 28.4 °F 24.6 °F 21.2 °F 74% 30.06 in 10.0 mi WNW 3.5 mph - N/A   Clear
8:15 AM 30.2 °F 25.4 °F 19.4 °F 64% 30.07 in 10.0 mi NW 4.6 mph - N/A   Clear
8:35 AM 30.2 °F 24.3 °F 17.6 °F 60% 30.08 in 10.0 mi NW 5.8 mph - N/A   Clear
8:55 AM 30.2 °F 21.9 °F 14.0 °F 51% 30.09 in 10.0 mi NW 9.2 mph 19.6 mph N/A   Clear
9:15 AM 30.2 °F 21.3 °F 14.0 °F 51% 30.09 in 10.0 mi WNW 10.4 mph 21.9 mph N/A   Scattered Clouds
9:35 AM 32.0 °F 23.6 °F 14.0 °F 48% 30.10 in 10.0 mi West 10.4 mph 19.6 mph N/A   Scattered Clouds
9:55 AM 32.0 °F 23.6 °F 14.0 °F 48% 30.10 in 10.0 mi WNW 10.4 mph 17.3 mph N/A   Scattered Clouds
10:15 AM 32.0 °F 24.2 °F 12.2 °F 44% 30.11 in 10.0 mi NW 9.2 mph 25.3 mph 0.01 in   Scattered Clouds
10:35 AM 32.0 °F 23.6 °F 12.2 °F 44% 30.12 in 10.0 mi WNW 10.4 mph 20.7 mph 0.01 in   Clear
10:55 AM 32.0 °F 24.2 °F 12.2 °F 44% 30.12 in 10.0 mi NW 9.2 mph 19.6 mph 0.01 in   Clear
11:15 AM 32.0 °F 24.2 °F 14.0 °F 48% 30.12 in 10.0 mi West 9.2 mph 17.3 mph N/A   Scattered Clouds
11:35 AM 33.8 °F 25.3 °F 14.0 °F 44% 30.13 in 10.0 mi WNW 11.5 mph 18.4 mph N/A   Scattered Clouds
11:55 AM 33.8 °F 24.8 °F 10.4 °F 38% 30.13 in 10.0 mi NW 12.7 mph 21.9 mph N/A   Scattered Clouds
12:15 PM 33.8 °F 25.8 °F 12.2 °F 41% 30.13 in 10.0 mi West 10.4 mph 24.2 mph N/A   Scattered Clouds
12:35 PM 33.8 °F 25.8 °F 12.2 °F 41% 30.12 in 10.0 mi WNW 10.4 mph 25.3 mph N/A   Clear
12:55 PM 33.8 °F 25.8 °F 10.4 °F 38% 30.11 in 10.0 mi West 10.4 mph 21.9 mph N/A   Scattered Clouds
1:15 PM 35.6 °F 27.5 °F 12.2 °F 38% 30.11 in 10.0 mi NW 11.5 mph 21.9 mph N/A   Clear
1:55 PM 35.6 °F 27.5 °F 10.4 °F 35% 30.11 in 10.0 mi WNW 11.5 mph 21.9 mph N/A   Clear
2:15 PM 35.6 °F 27.5 °F 10.4 °F 35% 30.11 in 10.0 mi WNW 11.5 mph 25.3 mph N/A   Scattered Clouds
2:35 PM 35.6 °F 32.8 °F 10.4 °F 35% 30.11 in 10.0 mi NW 3.5 mph 17.3 mph N/A   Clear
2:55 PM 37.4 °F 30.3 °F 10.4 °F 33% 30.11 in 10.0 mi West 10.4 mph 16.1 mph N/A   Clear
3:15 PM 37.4 °F 32.1 °F 10.4 °F 33% 30.11 in 10.0 mi West 6.9 mph 20.7 mph N/A   Clear
3:35 PM 37.4 °F 32.8 °F 10.4 °F 33% 30.11 in 10.0 mi NW 5.8 mph 16.1 mph N/A   Clear
3:55 PM 37.4 °F 30.8 °F 12.2 °F 36% 30.11 in 10.0 mi NW 9.2 mph - N/A   Clear
4:15 PM 37.4 °F 30.8 °F 10.4 °F 33% 30.12 in 10.0 mi West 9.2 mph 17.3 mph N/A   Clear
4:35 PM 37.4 °F 31.4 °F 8.6 °F 30% 30.13 in 10.0 mi WNW 8.1 mph 18.4 mph N/A   Clear
4:55 PM 37.4 °F 34.9 °F 10.4 °F 33% 30.13 in 10.0 mi NW 3.5 mph - N/A   Clear
5:15 PM 37.4 °F 32.1 °F 8.6 °F 30% 30.14 in 10.0 mi WNW 6.9 mph - N/A   Clear
5:35 PM 35.6 °F 32.8 °F 8.6 °F 33% 30.15 in 10.0 mi West 3.5 mph - N/A   Clear
5:55 PM 35.6 °F 32.8 °F 8.6 °F 33% 30.16 in 10.0 mi WNW 3.5 mph - N/A   Clear
6:15 PM 33.8 °F - 10.4 °F 38% 30.16 in 10.0 mi Calm Calm - N/A   Clear
6:35 PM 32.0 °F - 10.4 °F 41% 30.16 in 10.0 mi Calm Calm - N/A   Clear
6:55 PM 32.0 °F - 14.0 °F 48% 30.17 in 10.0 mi Calm Calm - N/A   Clear
7:15 PM 30.2 °F - 19.4 °F 64% 30.18 in 10.0 mi Calm Calm - N/A   Clear
7:35 PM 28.4 °F - 19.4 °F 69% 30.19 in 10.0 mi Calm Calm - N/A   Clear
7:55 PM 28.4 °F - 17.6 °F 64% 30.20 in 10.0 mi Calm Calm - N/A   Clear
8:15 PM 28.4 °F - 19.4 °F 69% 30.21 in 10.0 mi Calm Calm - N/A   Clear
8:35 PM 26.6 °F - 19.4 °F 74% 30.22 in 10.0 mi Calm Calm - N/A   Clear
8:55 PM 26.6 °F - 19.4 °F 74% 30.23 in 10.0 mi Calm Calm - N/A   Clear
9:15 PM 26.6 °F - 19.4 °F 74% 30.24 in 10.0 mi Calm Calm - N/A   Clear
9:35 PM 26.6 °F - 19.4 °F 74% 30.25 in 10.0 mi Calm Calm - N/A   Clear
9:55 PM 24.8 °F - 21.2 °F 86% 30.26 in 10.0 mi Calm Calm - N/A   Clear
10:15 PM 23.0 °F - 21.2 °F 93% 30.26 in 10.0 mi Calm Calm - N/A   Clear
10:35 PM 23.0 °F - 21.2 °F 93% 30.27 in 10.0 mi Calm Calm - N/A   Clear
10:55 PM 23.0 °F - 19.4 °F 86% 30.27 in 10.0 mi Calm Calm - N/A   Clear
11:15 PM 23.0 °F - 21.2 °F 93% 30.28 in 10.0 mi Calm Calm - N/A   Clear
11:35 PM 23.0 °F - 21.2 °F 93% 30.29 in 10.0 mi Calm Calm - N/A   Clear
11:55 PM 21.2 °F - 21.2 °F 100% 30.29 in 10.0 mi Calm Calm - N/A   Clear